Time,TemperatureF,DewpointF,PressureIn,WindDirection,WindDirectionDegrees,WindSpeedMPH,WindSpeedGustMPH,Humidity,HourlyPrecipIn,Conditions,Clouds,dailyrainin,SolarRadiationWatts/m^2,SoftwareType,DateUTC
2013-01-17 00:02:00,33.0,20.0,-100.00,WNW,302,4.0,9.0,58,0.00,,,-99.99,0.000000,,2013-01-17 07:02:00,
2013-01-17 00:12:00,33.0,20.0,-100.00,WNW,302,4.0,9.0,58,0.00,,,-99.99,0.000000,,2013-01-17 07:12:00,
2013-01-17 00:22:00,33.0,20.0,-100.00,WNW,302,4.0,9.0,58,0.00,,,-99.99,0.000000,,2013-01-17 07:22:00,
2013-01-17 00:30:00,36.0,21.0,-100.00,WNW,286,7.0,11.0,54,0.00,,,0.00,0.000000,,2013-01-17 07:30:00,
2013-01-17 00:52:00,36.0,21.0,-100.00,WNW,286,7.0,11.0,54,0.00,,,0.00,0.000000,,2013-01-17 07:52:00,
2013-01-17 01:02:00,36.0,21.0,-100.00,WNW,286,7.0,11.0,54,0.00,,,0.00,0.000000,,2013-01-17 08:02:00,
2013-01-17 01:12:00,36.0,21.0,-100.00,WNW,286,7.0,11.0,54,0.00,,,0.00,0.000000,,2013-01-17 08:12:00,
2013-01-17 01:22:00,36.0,21.0,-100.00,WNW,286,7.0,11.0,54,0.00,,,0.00,0.000000,,2013-01-17 08:22:00,
2013-01-17 01:30:00,38.0,21.0,-100.00,WNW,295,6.0,10.0,50,0.00,,,0.00,0.000000,,2013-01-17 08:30:00,
2013-01-17 01:53:00,38.0,21.0,-100.00,WNW,295,6.0,10.0,50,0.00,,,0.00,0.000000,,2013-01-17 08:53:00,
2013-01-17 02:02:00,38.0,21.0,-100.00,WNW,295,6.0,10.0,50,0.00,,,0.00,0.000000,,2013-01-17 09:02:00,
2013-01-17 02:12:00,38.0,21.0,-100.00,WNW,295,6.0,10.0,50,0.00,,,0.00,0.000000,,2013-01-17 09:12:00,
2013-01-17 02:22:00,38.0,21.0,-100.00,WNW,295,6.0,10.0,50,0.00,,,0.00,0.000000,,2013-01-17 09:22:00,
2013-01-17 02:30:00,38.0,17.0,-100.00,WNW,286,5.0,9.0,42,0.00,,,0.00,0.000000,,2013-01-17 09:30:00,
2013-01-17 02:52:00,38.0,17.0,-100.00,WNW,286,5.0,9.0,42,0.00,,,0.00,0.000000,,2013-01-17 09:52:00,
2013-01-17 03:02:00,38.0,17.0,-100.00,WNW,286,5.0,9.0,42,0.00,,,0.00,0.000000,,2013-01-17 10:02:00,
2013-01-17 03:12:00,38.0,17.0,-100.00,WNW,286,5.0,9.0,42,0.00,,,0.00,0.000000,,2013-01-17 10:12:00,
2013-01-17 03:22:00,38.0,17.0,-100.00,WNW,286,5.0,9.0,42,0.00,,,0.00,0.000000,,2013-01-17 10:22:00,
2013-01-17 03:30:00,41.0,18.0,-100.00,WSW,253,8.0,17.0,39,0.00,,,0.00,0.000000,,2013-01-17 10:30:00,
2013-01-17 03:53:00,41.0,18.0,-100.00,WSW,253,8.0,17.0,39,0.00,,,0.00,0.000000,,2013-01-17 10:53:00,
2013-01-17 04:02:00,41.0,18.0,-100.00,WSW,253,8.0,17.0,39,0.00,,,0.00,0.000000,,2013-01-17 11:02:00,
2013-01-17 04:12:00,41.0,18.0,-100.00,WSW,253,8.0,17.0,39,0.00,,,0.00,0.000000,,2013-01-17 11:12:00,
2013-01-17 04:22:00,41.0,18.0,-100.00,WSW,253,8.0,17.0,39,0.00,,,0.00,0.000000,,2013-01-17 11:22:00,
2013-01-17 04:30:00,39.0,16.0,-100.00,WSW,254,6.0,14.0,38,-99.99,,,0.00,0.000000,,2013-01-17 11:30:00,
2013-01-17 04:53:00,39.0,16.0,-100.00,WSW,254,6.0,14.0,38,-99.99,,,0.00,0.000000,,2013-01-17 11:53:00,
2013-01-17 05:02:00,39.0,16.0,-100.00,WSW,254,6.0,14.0,38,-99.99,,,0.00,0.000000,,2013-01-17 12:02:00,
2013-01-17 05:12:00,39.0,16.0,-100.00,WSW,254,6.0,14.0,38,-99.99,,,0.00,0.000000,,2013-01-17 12:12:00,
2013-01-17 05:22:00,39.0,16.0,-100.00,WSW,254,6.0,14.0,38,-99.99,,,0.00,0.000000,,2013-01-17 12:22:00,
2013-01-17 05:30:00,39.0,14.0,-100.00,West,274,5.0,14.0,36,0.00,,,0.00,0.000000,,2013-01-17 12:30:00,
2013-01-17 05:53:00,39.0,14.0,-100.00,West,274,5.0,14.0,36,0.00,,,0.00,0.000000,,2013-01-17 12:53:00,
2013-01-17 06:03:00,39.0,14.0,-100.00,West,274,5.0,14.0,36,0.00,,,0.00,0.000000,,2013-01-17 13:03:00,
2013-01-17 06:12:00,39.0,14.0,-100.00,West,274,5.0,14.0,36,0.00,,,0.00,0.000000,,2013-01-17 13:12:00,
2013-01-17 06:22:00,39.0,14.0,-100.00,West,274,5.0,14.0,36,0.00,,,0.00,0.000000,,2013-01-17 13:22:00,
2013-01-17 06:30:00,38.0,15.0,-100.00,WNW,288,7.0,12.0,39,0.00,,,-99.99,0.000000,,2013-01-17 13:30:00,
2013-01-17 06:53:00,38.0,15.0,-100.00,WNW,288,7.0,12.0,39,0.00,,,-99.99,0.000000,,2013-01-17 13:53:00,
2013-01-17 07:03:00,38.0,15.0,-100.00,WNW,288,7.0,12.0,39,0.00,,,-99.99,0.000000,,2013-01-17 14:03:00,
2013-01-17 07:12:00,38.0,15.0,-100.00,WNW,288,7.0,12.0,39,0.00,,,-99.99,0.000000,,2013-01-17 14:12:00,
2013-01-17 07:23:00,38.0,15.0,-100.00,WNW,288,7.0,12.0,39,0.00,,,-99.99,0.000000,,2013-01-17 14:23:00,
2013-01-17 07:30:00,39.0,14.0,-100.00,WSW,251,8.0,16.0,36,0.00,,,0.00,0.000000,,2013-01-17 14:30:00,
2013-01-17 07:53:00,39.0,14.0,-100.00,WSW,251,8.0,16.0,36,0.00,,,0.00,0.000000,,2013-01-17 14:53:00,
2013-01-17 08:53:00,39.0,14.0,-100.00,WSW,254,7.0,14.0,35,-99.99,,,0.00,4.000000,,2013-01-17 15:53:00,
2013-01-17 09:02:00,39.0,14.0,-100.00,WSW,254,7.0,14.0,35,-99.99,,,0.00,4.000000,,2013-01-17 16:02:00,
2013-01-17 09:53:00,42.0,16.0,-100.00,WSW,248,7.0,14.0,35,-99.99,,,-99.99,87.000000,,2013-01-17 16:53:00,
2013-01-17 10:02:00,42.0,16.0,-100.00,WSW,248,7.0,14.0,35,-99.99,,,-99.99,87.000000,,2013-01-17 17:02:00,
2013-01-17 10:30:00,44.0,16.0,-100.00,SW,232,7.0,16.0,32,0.00,,,-99.99,252.000000,,2013-01-17 17:30:00,
2013-01-17 10:53:00,44.0,16.0,-100.00,SW,232,7.0,16.0,32,0.00,,,-99.99,252.000000,,2013-01-17 17:53:00,
2013-01-17 11:03:00,44.0,16.0,-100.00,SW,232,7.0,16.0,32,0.00,,,-99.99,252.000000,,2013-01-17 18:03:00,
2013-01-17 11:30:00,44.0,17.0,-100.00,WSW,248,10.0,19.0,33,0.00,,,-99.99,378.000000,,2013-01-17 18:30:00,
2013-01-17 11:53:00,44.0,17.0,-100.00,WSW,248,10.0,19.0,33,0.00,,,-99.99,378.000000,,2013-01-17 18:53:00,
2013-01-17 12:03:00,44.0,17.0,-100.00,WSW,248,10.0,19.0,33,0.00,,,-99.99,378.000000,,2013-01-17 19:03:00,
2013-01-17 12:12:00,44.0,17.0,-100.00,WSW,248,10.0,19.0,33,0.00,,,-99.99,378.000000,,2013-01-17 19:12:00,
2013-01-17 12:22:00,44.0,17.0,-100.00,WSW,248,10.0,19.0,33,0.00,,,-99.99,378.000000,,2013-01-17 19:22:00,
2013-01-17 12:30:00,47.0,18.0,-100.00,WSW,245,6.0,19.0,31,0.00,,,0.00,469.000000,,2013-01-17 19:30:00,
2013-01-17 12:53:00,47.0,18.0,-100.00,WSW,245,6.0,19.0,31,0.00,,,0.00,469.000000,,2013-01-17 19:53:00,
2013-01-17 13:02:00,47.0,18.0,-100.00,WSW,245,6.0,19.0,31,0.00,,,0.00,469.000000,,2013-01-17 20:02:00,
2013-01-17 13:12:00,47.0,18.0,-100.00,WSW,245,6.0,19.0,31,0.00,,,0.00,469.000000,,2013-01-17 20:12:00,
2013-01-17 13:22:00,47.0,18.0,-100.00,WSW,245,6.0,19.0,31,0.00,,,0.00,469.000000,,2013-01-17 20:22:00,
2013-01-17 13:30:00,48.0,17.0,-100.00,WSW,237,8.0,20.0,29,0.00,,,0.00,532.000000,,2013-01-17 20:30:00,
2013-01-17 13:53:00,48.0,17.0,-100.00,WSW,237,8.0,20.0,29,0.00,,,0.00,532.000000,,2013-01-17 20:53:00,
2013-01-17 14:02:00,48.0,17.0,-100.00,WSW,237,8.0,20.0,29,0.00,,,0.00,532.000000,,2013-01-17 21:02:00,
2013-01-17 14:12:00,48.0,17.0,-100.00,WSW,237,8.0,20.0,29,0.00,,,0.00,532.000000,,2013-01-17 21:12:00,
2013-01-17 14:22:00,48.0,17.0,-100.00,WSW,237,8.0,20.0,29,0.00,,,0.00,532.000000,,2013-01-17 21:22:00,
2013-01-17 14:30:00,49.0,17.0,-100.00,SW,225,8.0,21.0,28,0.00,,,0.00,489.000000,,2013-01-17 21:30:00,
2013-01-17 14:53:00,49.0,17.0,-100.00,SW,225,8.0,21.0,28,0.00,,,0.00,489.000000,,2013-01-17 21:53:00,
2013-01-17 15:03:00,49.0,17.0,-100.00,SW,225,8.0,21.0,28,0.00,,,0.00,489.000000,,2013-01-17 22:03:00,
2013-01-17 15:12:00,49.0,17.0,-100.00,SW,225,8.0,21.0,28,0.00,,,0.00,489.000000,,2013-01-17 22:12:00,
2013-01-17 15:22:00,49.0,17.0,-100.00,SW,225,8.0,21.0,28,0.00,,,0.00,489.000000,,2013-01-17 22:22:00,
2013-01-17 15:30:00,48.0,17.0,-100.00,SW,230,10.0,22.0,29,0.00,,,0.00,330.000000,,2013-01-17 22:30:00,
2013-01-17 15:52:00,48.0,17.0,-100.00,SW,230,10.0,22.0,29,0.00,,,0.00,330.000000,,2013-01-17 22:52:00,
2013-01-17 16:02:00,48.0,17.0,-100.00,SW,230,10.0,22.0,29,0.00,,,0.00,330.000000,,2013-01-17 23:02:00,
2013-01-17 16:12:00,48.0,17.0,-100.00,SW,230,10.0,22.0,29,0.00,,,0.00,330.000000,,2013-01-17 23:12:00,
2013-01-17 16:22:00,48.0,17.0,-100.00,SW,230,10.0,22.0,29,0.00,,,0.00,330.000000,,2013-01-17 23:22:00,
2013-01-17 16:30:00,46.0,19.0,-100.00,WSW,245,6.0,17.0,33,0.00,,,0.00,87.000000,,2013-01-17 23:30:00,
2013-01-17 16:53:00,46.0,19.0,-100.00,WSW,245,6.0,17.0,33,0.00,,,0.00,87.000000,,2013-01-17 23:53:00,
2013-01-17 17:02:00,46.0,19.0,-100.00,WSW,245,6.0,17.0,33,0.00,,,0.00,87.000000,,2013-01-18 00:02:00,
2013-01-17 17:12:00,46.0,19.0,-100.00,WSW,245,6.0,17.0,33,0.00,,,0.00,87.000000,,2013-01-18 00:12:00,
2013-01-17 17:23:00,46.0,19.0,-100.00,WSW,245,6.0,17.0,33,0.00,,,0.00,87.000000,,2013-01-18 00:23:00,
2013-01-17 17:30:00,46.0,19.0,-100.00,SW,233,12.0,22.0,33,0.00,,,-99.99,13.000000,,2013-01-18 00:30:00,
2013-01-17 17:53:00,46.0,19.0,-100.00,SW,233,12.0,22.0,33,0.00,,,-99.99,13.000000,,2013-01-18 00:53:00,
2013-01-17 18:02:00,46.0,19.0,-100.00,SW,233,12.0,22.0,33,0.00,,,-99.99,13.000000,,2013-01-18 01:02:00,
2013-01-17 18:12:00,46.0,19.0,-100.00,SW,233,12.0,22.0,33,0.00,,,-99.99,13.000000,,2013-01-18 01:12:00,
2013-01-17 18:22:00,46.0,19.0,-100.00,SW,233,12.0,22.0,33,0.00,,,-99.99,13.000000,,2013-01-18 01:22:00,
2013-01-17 18:30:00,46.0,19.0,-100.00,SW,232,6.0,20.0,33,0.00,,,-99.99,0.000000,,2013-01-18 01:30:00,
2013-01-17 18:53:00,46.0,19.0,-100.00,SW,232,6.0,20.0,33,0.00,,,-99.99,0.000000,,2013-01-18 01:53:00,
2013-01-17 19:02:00,46.0,19.0,-100.00,SW,232,6.0,20.0,33,0.00,,,-99.99,0.000000,,2013-01-18 02:02:00,
2013-01-17 19:12:00,46.0,19.0,-100.00,SW,232,6.0,20.0,33,0.00,,,-99.99,0.000000,,2013-01-18 02:12:00,
2013-01-17 19:22:00,46.0,19.0,-100.00,SW,232,6.0,20.0,33,0.00,,,-99.99,0.000000,,2013-01-18 02:22:00,
2013-01-17 19:30:00,46.0,18.0,-100.00,SW,220,8.0,21.0,32,0.00,,,0.00,0.000000,,2013-01-18 02:30:00,
2013-01-17 19:53:00,46.0,18.0,-100.00,SW,220,8.0,21.0,32,0.00,,,0.00,0.000000,,2013-01-18 02:53:00,
2013-01-17 20:02:00,46.0,18.0,-100.00,SW,220,8.0,21.0,32,0.00,,,0.00,0.000000,,2013-01-18 03:02:00,
2013-01-17 20:12:00,46.0,18.0,-100.00,SW,220,8.0,21.0,32,0.00,,,0.00,0.000000,,2013-01-18 03:12:00,
2013-01-17 20:22:00,46.0,18.0,-100.00,SW,220,8.0,21.0,32,0.00,,,0.00,0.000000,,2013-01-18 03:22:00,
2013-01-17 20:30:00,45.0,15.0,-100.00,WNW,284,6.0,15.0,30,0.00,,,0.00,0.000000,,2013-01-18 03:30:00,
2013-01-17 20:53:00,45.0,15.0,-100.00,WNW,284,6.0,15.0,30,0.00,,,0.00,0.000000,,2013-01-18 03:53:00,
2013-01-17 21:02:00,45.0,15.0,-100.00,WNW,284,6.0,15.0,30,0.00,,,0.00,0.000000,,2013-01-18 04:02:00,
2013-01-17 21:12:00,45.0,15.0,-100.00,WNW,284,6.0,15.0,30,0.00,,,0.00,0.000000,,2013-01-18 04:12:00,
2013-01-17 21:22:00,45.0,15.0,-100.00,WNW,284,6.0,15.0,30,0.00,,,0.00,0.000000,,2013-01-18 04:22:00,
2013-01-17 21:30:00,44.0,17.0,-100.00,NW,312,4.0,12.0,34,0.00,,,0.00,0.000000,,2013-01-18 04:30:00,
2013-01-17 21:53:00,44.0,17.0,-100.00,NW,312,4.0,12.0,34,0.00,,,0.00,0.000000,,2013-01-18 04:53:00,
2013-01-17 22:03:00,44.0,17.0,-100.00,NW,312,4.0,12.0,34,0.00,,,0.00,0.000000,,2013-01-18 05:03:00,
2013-01-17 22:12:00,44.0,17.0,-100.00,NW,312,4.0,12.0,34,0.00,,,0.00,0.000000,,2013-01-18 05:12:00,
2013-01-17 22:22:00,44.0,17.0,-100.00,NW,312,4.0,12.0,34,0.00,,,0.00,0.000000,,2013-01-18 05:22:00,
2013-01-17 22:30:00,47.0,19.0,-100.00,WSW,244,7.0,15.0,33,0.00,,,0.00,0.000000,,2013-01-18 05:30:00,
2013-01-17 22:53:00,47.0,19.0,-100.00,WSW,244,7.0,15.0,33,0.00,,,0.00,0.000000,,2013-01-18 05:53:00,
2013-01-17 23:02:00,47.0,19.0,-100.00,WSW,244,7.0,15.0,33,0.00,,,0.00,0.000000,,2013-01-18 06:02:00,
2013-01-17 23:12:00,47.0,19.0,-100.00,WSW,244,7.0,15.0,33,0.00,,,0.00,0.000000,,2013-01-18 06:12:00,
2013-01-17 23:22:00,47.0,19.0,-100.00,WSW,244,7.0,15.0,33,0.00,,,0.00,0.000000,,2013-01-18 06:22:00,
2013-01-17 23:30:00,45.0,15.0,-100.00,WSW,250,12.0,20.0,30,0.00,,,0.00,0.000000,,2013-01-18 06:30:00,
2013-01-17 23:52:00,45.0,15.0,-100.00,WSW,250,12.0,20.0,30,0.00,,,0.00,0.000000,,2013-01-18 06:52:00,